loading
|

THOR ABLESTAR DEB, 544

Orbit data source: Space-Track

THOR ABLESTAR DEB, 544 is space debris in LEO originally from a launch on Thu, 29 Jun 1961 UTC launched from the Air Force Eastern Test Range (AFETR). Debris objects in space refer to the collection of defunct objects orbiting the Earth. Examples of debris include non-operational satellites, rocket bodies, and fragments generated from explosions, collisions, or faulty payload assembly.

Loading next visibility...
Loading greatness...
THOR ABLESTAR DEB details
Identifier
544, 1961-015GD
Orbit
LEO
Last TLE update1 day ago
Origin
Flag of USUSAF SSD (US)
ManufacturerUnknown
Mission statusUnknown
MissionUnknown
Bus & MotorUnknown
MassUnknown
Launch date (UTC)
1961-06-29 (63 years ago)
Launch vehicleUnknown
Launch site
Air Force Eastern Test Range (AFETR)
Object type
Payload
Rocket body
Debris
Radar Cross SectionSmall (<0.1 m²)

Expand to show TLE details & history

TLE from 1 day ago
0 THOR ABLESTAR DEB
1 00544U 61015GD  24250.45153328  .00000857  00000-0  11899-2 0  9990
2 00544  66.8718 269.2058 0187704 337.5237 135.2567 13.55595197113655
Epoch: 2024-09-06T10:50Z
Definitive object data (Epoch: 2024-09-06T10:50:12.475Z)
Latitude57.07949°
Longitude-100.39301°
Altitude1,160.816 km
Speed7.229 km/s
True Right ascension03h 12m 43s
True Declination56° 55' 51"
Sunlit
Object was in daylight at TLE epoch
Predictive object data (real-time)
Latitude-65.22311°
Longitude50.66863°
Altitude998.296 km
Speed7.391 km/s
Apparent Right ascension19h 17m 46s
Apparent Declination-70° 36' 13"
Sunlit
Object is in daylight
Predictive observer data (real-time)
Local Sidereal Time09:54:44
Azimuth159.384° S
Elevation-53.372°
Doppler factor1
Orbital elements
Apogee1,189.587 km
Perigee910.723 km
Semi-major axis7,428.292 km
Eccentricity0.0187704
Inclination66.8718°
RAAN269.2058°
Arg. of periapsis337.5237°
True anomaly136.74581°
Mean anomaly135.2567°
Eccentric anomaly136.00373°
Mean motion3.39008 °/min
BSTAR0.0011899
Period106.19 mins
No data available

THOR ABLESTAR DEB Visibility forecast

Observer location: 39.9160978°, -105.1181434

THOR ABLESTAR DEB is not visible in the next 10 days
Span
Click to sort rows by Start time (UTC) header in descending order
Start Az.
Max El. time (UTC)
Max El. Az.
Max El.
End time (UTC)
End Az.